TimeEST,TemperatureF,Dew PointF,Humidity,Sea Level PressureIn,VisibilityMPH,Wind Direction,Wind SpeedMPH,Gust SpeedMPH,PrecipitationIn,Events,Conditions,WindDirDegrees,DateUTC
12:28 AM,46.4,42.8,87,30.15,9.0,East,3.5,-,0.02,Rain,Light Rain,80,2013-02-23 05:28:00
12:56 AM,46.0,44.1,93,30.13,10.0,East,8.1,-,0.02,Rain,Light Rain,100,2013-02-23 05:56:00
1:43 AM,46.4,44.6,93,30.08,5.0,ESE,9.2,-,0.01,Rain,Light Rain,110,2013-02-23 06:43:00
1:56 AM,46.9,45.0,93,30.09,3.0,East,5.8,-,0.01,Rain,Light Rain,90,2013-02-23 06:56:00
2:14 AM,46.4,46.4,100,30.07,3.0,East,6.9,-,0.00,Rain,Light Rain,100,2013-02-23 07:14:00
2:56 AM,48.9,46.9,93,30.05,4.0,ESE,9.2,-,0.02,Rain,Light Rain,110,2013-02-23 07:56:00
3:44 AM,48.2,48.2,100,30.03,2.5,East,5.8,-,0.01,Rain,Light Rain,100,2013-02-23 08:44:00
3:56 AM,48.9,48.0,97,30.03,2.5,East,4.6,-,0.03,Rain,Light Rain,90,2013-02-23 08:56:00
4:56 AM,48.9,48.0,97,30.01,2.5,Calm,Calm,-,0.03,Rain,Light Rain,0,2013-02-23 09:56:00
5:56 AM,50.0,48.9,96,29.99,2.0,Calm,Calm,-,0.04,Rain,Light Rain,0,2013-02-23 10:56:00
6:56 AM,50.0,48.9,96,29.96,1.2,ESE,6.9,-,0.03,Rain,Light Rain,110,2013-02-23 11:56:00
7:56 AM,51.1,50.0,96,29.95,1.2,East,3.5,-,0.17,Rain,Rain,80,2013-02-23 12:56:00
8:19 AM,51.8,50.0,94,29.94,2.5,Calm,Calm,-,0.07,Rain,Light Rain,0,2013-02-23 13:19:00
8:56 AM,50.0,48.0,93,29.96,2.5,WNW,10.4,-,0.14,Rain,Light Rain,300,2013-02-23 13:56:00
9:06 AM,48.2,48.2,100,29.94,4.0,NW,9.2,-,0.00,Rain,Light Rain,310,2013-02-23 14:06:00
9:56 AM,46.0,45.0,96,29.93,4.0,NW,8.1,-,0.03,Rain,Light Rain,310,2013-02-23 14:56:00
10:56 AM,46.9,46.0,97,29.92,2.5,West,6.9,-,0.03,Rain,Light Rain,270,2013-02-23 15:56:00
11:50 AM,48.2,46.4,93,29.88,3.0,West,4.6,-,0.05,Rain,Light Rain,270,2013-02-23 16:50:00
11:56 AM,48.0,46.9,96,29.88,3.0,WNW,3.5,-,0.06,Rain,Light Rain,300,2013-02-23 16:56:00
12:10 PM,48.2,46.4,93,29.87,3.0,West,5.8,-,0.00,Rain,Light Rain,260,2013-02-23 17:10:00
12:56 PM,48.0,46.9,96,29.86,3.0,WNW,6.9,-,0.01,,Overcast,300,2013-02-23 17:56:00
1:56 PM,46.9,45.0,93,29.85,3.0,WNW,8.1,-,N/A,,Overcast,290,2013-02-23 18:56:00
2:20 PM,46.4,44.6,93,29.84,5.0,WNW,9.2,-,N/A,,Overcast,300,2013-02-23 19:20:00
2:56 PM,45.0,43.0,93,29.85,6.0,WNW,12.7,-,N/A,,Overcast,300,2013-02-23 19:56:00
3:56 PM,46.0,43.0,89,29.85,6.0,NW,11.5,-,N/A,,Overcast,310,2013-02-23 20:56:00
4:56 PM,44.1,42.1,93,29.82,3.0,NNW,11.5,-,N/A,,Overcast,340,2013-02-23 21:56:00
5:00 PM,44.6,42.8,93,29.81,0.8,NNW,11.5,-,N/A,,Overcast,330,2013-02-23 22:00:00
5:20 PM,44.6,42.8,93,29.82,1.0,NW,10.4,-,N/A,,Overcast,320,2013-02-23 22:20:00
5:38 PM,42.8,42.8,100,29.82,3.0,NW,10.4,-,N/A,,Overcast,320,2013-02-23 22:38:00
5:56 PM,43.0,41.0,93,29.83,3.0,NNW,10.4,-,N/A,,Overcast,330,2013-02-23 22:56:00
6:56 PM,43.0,41.0,93,29.84,10.0,WNW,10.4,-,N/A,,Overcast,300,2013-02-23 23:56:00
7:27 PM,44.6,42.8,93,29.83,10.0,NW,8.1,-,N/A,,Overcast,310,2013-02-24 00:27:00
7:56 PM,44.1,42.1,93,29.83,8.0,NW,5.8,-,N/A,,Overcast,310,2013-02-24 00:56:00
8:46 PM,44.6,42.8,93,29.81,7.0,WNW,4.6,-,N/A,,Overcast,300,2013-02-24 01:46:00
8:56 PM,44.1,42.1,93,29.81,7.0,NW,3.5,-,N/A,,Overcast,310,2013-02-24 01:56:00
9:56 PM,44.1,41.0,89,29.82,7.0,WNW,4.6,-,N/A,,Overcast,290,2013-02-24 02:56:00
10:56 PM,43.0,41.0,93,29.81,4.0,West,8.1,-,N/A,,Overcast,280,2013-02-24 03:56:00
11:56 PM,43.0,41.0,93,29.81,4.0,West,6.9,-,N/A,,Overcast,280,2013-02-24 04:56:00